Hourly Weather Roundup
Issued by NWS Central Illinois

Home | Current Version | Previous Version | Text Only | Print | Product List | Glossary On
Versions: 1 2 3 4 5 6 7 8 9 10 11 12 13 14 15 16 17 18 19 20 21 22 23 24 25 26 27 28 29 30 31 32 33 34 35 36 37 38 39 40 41 42 43 44 45 46 47 48 49 50
000
NZUS43 KILX 291110
HWRILX

AREA WEATHER ROUNDUP
NATIONAL WEATHER SERVICE, LINCOLN IL
600 AM CDT WED MAR 29 2017


CITY           SKY/WX    TMP DP  RH WIND       PRES   REMARKS
BLOOMINGTON    CLOUDY    43  42  97 E15       30.15S FOG
CHAMPAIGN      CLOUDY    47  43  86 NE14      30.14R
DECATUR        CLOUDY    46  42  86 E12       30.11F
EFFINGHAM      CLOUDY    43  43 100 NE5       30.11S FOG
FLORA          CLEAR     47  44  89 NE7       30.09R
GALESBURG      CLOUDY    42  42 100 E10       30.12R FOG
JACKSONVILLE   CLOUDY    43  40  91 E14       30.09S
LACON          CLOUDY    42  41  97 E10G16    30.16F FOG
LAWRENCEVILLE  CLEAR     47  45  93 NE9       30.09F
LITCHFIELD     CLOUDY    42  40  93 NE12      30.06F
$$


CITY           SKY/WX    TMP DP  RH WIND       PRES   REMARKS
LINCOLN        CLOUDY    46  44  95 E7        30.12F
MACOMB         CLOUDY    41  40  97 E13       30.12F FOG     WCI  34
MATTOON        CLEAR     43  43 100 NE8       30.11R
MT CARMEL AP   PTCLDY    46  43  92 NE9       30.08F
OLNEY-NOBLE AP CLEAR     45  45 100 NE7       30.09S
PARIS          CLOUDY    47  46  94 NE8       30.14R
PEORIA         CLOUDY    44  43  96 E12       30.14S FOG
PONTIAC        CLOUDY    42  42  98 NE12      30.20R
RANTOUL        CLOUDY    47  45  91 E10       30.16R
SPRINGFIELD    CLOUDY    46  41  82 E8        30.11F
TAYLORVILLE    NOT AVBL
$$

...REGIONAL REPORTS...


CITY           SKY/WX    TMP DP  RH WIND       PRES   REMARKS
CHICAGO O`HARE FOG       35  33  92 NE8       30.23R VSB 3/4 WCI  29
KANKAKEE       CLOUDY    37  36  93 NE7       30.21R FOG     WCI  32
MOLINE         CLOUDY    44  40  85 E14       30.14F
MOUNT STERLING CLOUDY    41  39  93 E12       30.06S WCI  34
MOUNT VERNON   CLOUDY    47  45  93 NE10      30.06S
PITTSFIELD     CLOUDY    44  42  90 NE14G21   30.05F
QUINCY         CLOUDY    44  40  85 E16       30.02F
ROCKFORD       FOG       36  35  96 E7        30.24R VSB 1   WCI  30
$$


CITY           SKY/WX    TMP DP  RH WIND       PRES   REMARKS
BURLINGTON     CLOUDY    41  40  96 E12       30.10F WCI  34
CEDAR RAPIDS   CLOUDY    39  39 100 E14       30.13F FOG     WCI  31
DES MOINES     CLOUDY    45  40  82 E7        30.10S
KIRKSVILLE     CLOUDY    47  44  90 NE12G20   30.04R
OTTUMWA        CLOUDY    43  41  93 E12       30.09R
ST LOUIS       CLOUDY    50  42  74 E14       30.03F
$$


CITY           SKY/WX    TMP DP  RH WIND       PRES   REMARKS
TERRE HAUTE    CLOUDY    50  45  83 E9        30.12S
EVANSVILLE     CLEAR     50  46  86 NE8       30.07F
INDIANAPOLIS   DRIZZLE   48  43  82 E15       30.15R
LAFAYETTE      CLOUDY    45  42  89 E13       30.17S
MADISON        FOG       31  30  96 CALM      30.25R VSB 1/2
MILWAUKEE      FOG       33  30  88 N5        30.26R VSB 1/4 WCI  29
$$





USA.gov is the U.S. government's official web portal to all federal, state and local government web resources and services.